Location: Middlebury College Observatory
(44.0123°N, 73.1804°W)
Time: 05:02:39
(UTC-05:00)

ISS - Visible Passes

Search period start: 24 February 2018 00:00
Search period end: 06 March 2018 00:00
Orbit: 402 x 407 km, 51.6° (Epoch: 24 February)

Date Brightness Start Highest point End Pass type
(mag) Time Alt. Az. Time Alt. Az. Time Alt. Az.
25 Feb -1.0 05:51:50 10° S 05:54:11 18° SE 05:56:31 10° E visible
27 Feb -2.6 05:42:52 10° SSW 05:45:58 40° SE 05:49:04 10° ENE visible
28 Feb -1.6 04:51:56 14° S 04:53:52 22° SE 04:56:30 10° E visible
01 Mar -0.8 04:02:14 12° ESE 04:02:14 12° ESE 04:03:18 10° ESE visible
01 Mar -3.9 05:34:55 13° WSW 05:37:50 89° NW 05:41:08 10° ENE visible
02 Mar -3.2 04:45:03 44° S 04:45:36 50° SE 04:48:48 10° ENE visible
03 Mar -1.0 03:55:03 18° E 03:55:03 18° E 03:56:18 10° ENE visible
03 Mar -3.3 05:27:43 19° W 05:29:48 46° NNW 05:32:59 10° NE visible
04 Mar -3.8 04:37:37 72° N 04:37:37 72° N 04:40:44 10° NE visible
05 Mar -0.9 03:47:25 18° ENE 03:47:25 18° ENE 03:48:25 10° ENE visible
05 Mar -2.6 05:20:04 18° WNW 05:21:50 29° NNW 05:24:45 10° NE visible
